Drummond Island, MI

6:21 PM EST on February 25, 2017 (GMT -0500)
Drummond Island

Weather History for KDRM - November, 2013

Change the Weather History Date:

Friday, November 1, 2013

  Actual Average (KCIU) Record (KCIU)
Temperature  
Mean Temperature 46 °F -  
Max Temperature 53 °F 50 °F 64 °F (1999)
Min Temperature 40 °F 31 °F 19 °F (1992)
Degree Days  
Heating Degree Days 18    
Moisture  
Dew Point 45 °F    
Average Humidity 91    
Maximum Humidity 100    
Minimum Humidity 80    
Precipitation  
Precipitation 0.00 in - - ()
Sea Level Pressure  
Sea Level Pressure 29.25 in    
Wind  
Wind Speed 4 mph (NW)    
Max Wind Speed 14 mph    
Max Gust Speed 32 mph    
Visibility 8 miles    
Events Fog , Rain    
Averages and records for this station are not official NWS values.
T = Trace of Precipitation, MM = Missing Value Source: NWS Daily Summary

Daily Weather History Graph

Daily Weather History Graph

Search for Another Location

Airport or City:

Trip Planner

Search our weather history database for the weather conditions in past years. The results will help you decide how hot, cold, wet, or windy it might be!

Date:

Astronomy

Nov. 01, 2013 Rise Set
Actual Time 8:15 AM EDT 6:20 PM EDT
Civil Twilight 7:44 AM EDT 6:51 PM EDT
Nautical Twilight 7:09 AM EDT 7:27 PM EDT
Astronomical Twilight 6:34 AM EDT 8:01 PM EDT
Moon 6:01 AM EDT (11/1) 5:17 PM EDT (11/1)
Length of Visible Light 11h 07m
Length of Day
10h 04m
Waning Crescent, 4% of the Moon is Illuminated
Nov 1
Waning Crescent
Nov 3
New
Nov 10
First Quarter
Nov 17
Full
Nov 25
Last Quarter

Hourly Weather History & Observations

Time (EDT) Temp. Windchill Dew Point Humidity Pressure Visibility Wind Dir Wind Speed Gust Speed Precip Events Conditions
12:15 AM 53.6 °F - 53.6 °F 100% 29.00 in 0.8 mi Calm Calm - N/A   Light Drizzle
12:35 AM 53.2 °F - 53.2 °F 100% 28.98 in 0.5 mi Calm Calm - N/A   Drizzle
12:55 AM 53.1 °F - 53.1 °F 100% 28.96 in 2.0 mi Calm Calm - N/A Rain Rain
1:15 AM 52.9 °F - 52.9 °F 100% 28.94 in 7.0 mi Calm Calm - N/A   Light Drizzle
1:35 AM 53.2 °F - 53.2 °F 100% 28.95 in 2.0 mi Calm Calm - N/A   Overcast
1:55 AM 52.3 °F - 52.3 °F 100% 28.94 in 0.5 mi Calm Calm - N/A Fog Fog
2:15 AM 51.8 °F - 51.8 °F 100% 28.92 in 0.5 mi Calm Calm - N/A   Drizzle
2:35 AM 51.6 °F - 51.6 °F 100% 28.90 in 0.8 mi Calm Calm - N/A   Drizzle
2:55 AM 51.4 °F - 51.4 °F 100% 28.88 in 1.2 mi Calm Calm - N/A Rain Light Rain
3:15 AM 51.6 °F - 51.6 °F 100% 28.87 in 1.8 mi Calm Calm - N/A Rain Light Rain
3:35 AM 51.8 °F - 51.8 °F 100% 28.87 in 1.8 mi Calm Calm - N/A Rain Rain
3:55 AM 51.3 °F - 51.3 °F 100% 28.87 in 4.0 mi Calm Calm - N/A Rain Rain
4:15 AM 50.9 °F - 50.9 °F 100% 28.86 in 1.8 mi West 3.5 mph - N/A Rain Rain
4:35 AM 50.9 °F - 50.9 °F 100% 28.85 in 1.5 mi West 3.5 mph - N/A Rain Rain
4:55 AM 51.3 °F - 51.3 °F 100% 28.85 in 2.5 mi WNW 3.5 mph - N/A Rain Rain
5:15 AM 51.4 °F - 51.4 °F 100% 28.85 in 4.0 mi West 3.5 mph - N/A Rain Light Rain
5:35 AM 51.1 °F - 51.1 °F 100% 28.86 in 7.0 mi West 6.9 mph - N/A Rain Light Rain
5:55 AM 51.1 °F - 51.1 °F 100% 28.86 in 7.0 mi West 6.9 mph - N/A   Drizzle
6:15 AM 51.1 °F - 51.1 °F 100% 28.87 in 7.0 mi West 8.1 mph - N/A Rain Light Rain
6:35 AM 50.5 °F - 50.5 °F 100% 28.89 in 5.0 mi WNW 13.8 mph 21.9 mph N/A Rain Light Rain
6:55 AM 50.2 °F - 50.2 °F 100% 28.90 in 5.0 mi NW 10.4 mph 17.3 mph N/A Rain Light Rain
7:16 AM 50.0 °F - 50.0 °F 100% 28.92 in 4.0 mi NW 6.9 mph - N/A Rain Light Rain
7:35 AM 49.3 °F - 48.7 °F 98% 28.95 in 10.0 mi NW 13.8 mph 26.5 mph N/A   Overcast
7:55 AM 48.7 °F - 46.8 °F 93% 28.98 in 10.0 mi NW 12.7 mph 32.2 mph N/A   Overcast
8:15 AM 48.4 °F - 46.6 °F 93% 29.02 in 10.0 mi NW 8.1 mph 21.9 mph N/A   Overcast
8:35 AM 48.6 °F - 47.5 °F 96% 29.05 in 7.0 mi WNW 12.7 mph 20.7 mph N/A Rain Light Rain
8:55 AM 47.8 °F - 46.8 °F 96% 29.09 in 5.0 mi WNW 10.4 mph 20.7 mph N/A Rain Light Rain
9:15 AM 47.8 °F - 46.6 °F 95% 29.12 in 7.0 mi WNW 11.5 mph 21.9 mph N/A Rain Rain
9:35 AM 47.5 °F - 46.0 °F 95% 29.15 in 10.0 mi WNW 11.5 mph 23.0 mph N/A Rain Light Rain
9:55 AM 47.3 °F - 45.5 °F 93% 29.18 in 10.0 mi WNW 11.5 mph 18.4 mph N/A   Overcast
10:15 AM 46.9 °F - 45.0 °F 93% 29.20 in 10.0 mi WNW 8.1 mph 23.0 mph N/A   Overcast
10:35 AM 46.6 °F - 44.6 °F 93% 29.22 in 10.0 mi WNW 12.7 mph 19.6 mph N/A   Overcast
10:55 AM 46.2 °F 41.7 °F 43.7 °F 91% 29.24 in 10.0 mi WNW 9.2 mph 19.6 mph N/A   Overcast
11:15 AM 45.9 °F 41.2 °F 43.5 °F 92% 29.26 in 10.0 mi WNW 9.2 mph 18.4 mph N/A   Overcast
11:35 AM 45.9 °F 41.7 °F 43.5 °F 92% 29.28 in 10.0 mi West 8.1 mph - N/A   Overcast
11:55 AM 46.0 °F 43.1 °F 43.7 °F 92% 29.29 in 10.0 mi West 5.8 mph - N/A   Overcast
12:15 PM 46.6 °F - 43.7 °F 90% 29.30 in 10.0 mi WNW 5.8 mph - N/A   Overcast
12:35 PM 46.6 °F - 43.7 °F 90% 29.32 in 10.0 mi WNW 6.9 mph - N/A   Overcast
12:55 PM 47.3 °F - 43.9 °F 88% 29.34 in 10.0 mi WNW 8.1 mph - N/A   Overcast
1:15 PM 46.8 °F - 42.6 °F 85% 29.35 in 10.0 mi NW 8.1 mph - N/A   Overcast
1:35 PM 46.8 °F - 41.0 °F 80% 29.37 in 10.0 mi NNW 4.6 mph - N/A   Overcast
1:55 PM 46.6 °F - 40.6 °F 80% 29.38 in 10.0 mi NW 3.5 mph - N/A   Overcast
2:16 PM 46.0 °F 43.1 °F 41.4 °F 84% 29.40 in 10.0 mi WNW 5.8 mph - N/A   Overcast
2:35 PM 46.0 °F 42.5 °F 41.7 °F 85% 29.40 in 10.0 mi WNW 6.9 mph - N/A   Overcast
2:55 PM 45.9 °F 42.9 °F 41.4 °F 84% 29.42 in 10.0 mi WNW 5.8 mph - N/A   Overcast
3:15 PM 45.7 °F 43.4 °F 41.2 °F 84% 29.43 in 10.0 mi WNW 4.6 mph - N/A   Overcast
3:35 PM 45.5 °F 42.5 °F 40.6 °F 83% 29.45 in 10.0 mi NW 5.8 mph - N/A   Overcast
3:55 PM 45.5 °F 43.2 °F 40.3 °F 82% 29.46 in 10.0 mi NW 4.6 mph - N/A   Overcast
4:15 PM 45.3 °F 41.6 °F 40.1 °F 82% 29.46 in 10.0 mi NNW 6.9 mph - N/A   Overcast
4:35 PM 45.1 °F 42.0 °F 39.7 °F 81% 29.48 in 10.0 mi WNW 5.8 mph - N/A   Overcast
4:55 PM 45.1 °F 43.7 °F 39.4 °F 80% 29.49 in 10.0 mi WNW 3.5 mph - N/A   Overcast
5:15 PM 44.8 °F 42.4 °F 39.2 °F 81% 29.50 in 10.0 mi WNW 4.6 mph - N/A   Overcast
5:35 PM 44.8 °F 43.3 °F 39.4 °F 81% 29.51 in 10.0 mi West 3.5 mph - N/A   Overcast
5:55 PM 44.6 °F 43.1 °F 39.2 °F 81% 29.52 in 10.0 mi WNW 3.5 mph - N/A   Overcast
6:15 PM 44.6 °F 43.1 °F 38.8 °F 80% 29.53 in 10.0 mi NW 3.5 mph - N/A   Overcast
6:35 PM 44.6 °F - 39.0 °F 81% 29.54 in 10.0 mi Calm Calm - N/A   Overcast
6:55 PM 44.2 °F 42.7 °F 38.7 °F 81% 29.55 in 10.0 mi WNW 3.5 mph - N/A   Overcast
7:15 PM 44.1 °F 42.5 °F 38.7 °F 81% 29.56 in 10.0 mi NW 3.5 mph - N/A   Overcast
7:35 PM 44.1 °F - 39.0 °F 82% 29.57 in 10.0 mi Calm Calm - N/A   Overcast
7:55 PM 44.1 °F 42.5 °F 38.8 °F 82% 29.57 in 10.0 mi NW 3.5 mph - N/A   Overcast
8:15 PM 43.9 °F - 39.0 °F 83% 29.58 in 10.0 mi Calm Calm - N/A   Overcast
8:35 PM 43.3 °F - 38.3 °F 82% 29.58 in 10.0 mi Calm Calm - N/A   Overcast
8:55 PM 43.7 °F 42.1 °F 38.3 °F 81% 29.59 in 10.0 mi NNW 3.5 mph - N/A   Overcast
9:15 PM 43.3 °F 41.7 °F 37.9 °F 81% 29.59 in 10.0 mi NNW 3.5 mph - N/A   Overcast
9:35 PM 43.0 °F - 38.1 °F 83% 29.60 in 10.0 mi Calm Calm - N/A   Overcast
9:55 PM 42.8 °F 39.3 °F 38.1 °F 84% 29.61 in 10.0 mi North 5.8 mph - N/A   Overcast
10:15 PM 41.9 °F 37.5 °F 38.7 °F 88% 29.62 in 10.0 mi North 6.9 mph - N/A Rain Light Rain
10:35 PM 41.0 °F 39.0 °F 38.7 °F 91% 29.62 in 10.0 mi NNE 3.5 mph - N/A   Drizzle
10:55 PM 41.0 °F 39.0 °F 39.2 °F 93% 29.63 in 10.0 mi North 3.5 mph - N/A   Drizzle
11:15 PM 40.6 °F 36.7 °F 38.3 °F 91% 29.64 in 10.0 mi North 5.8 mph - N/A   Overcast
11:35 PM 40.3 °F 37.1 °F 37.8 °F 91% 29.64 in 10.0 mi NNE 4.6 mph - N/A   Overcast
11:55 PM 40.1 °F 38.0 °F 36.9 °F 88% 29.65 in 10.0 mi NNE 3.5 mph - N/A   Overcast